Вернуться в каталог

STARLINK-1020

АктивенСвязьVLEO
NORAD 44725·PAYLOAD·🇺🇸 United States

Запущен Nov 11, 2019 с Cape Canaveral Space Force Station

Loading…

Ближайшие Пролёты (ближайшие 24 часа)

TLE

СвежийSource: CelesTrak SupGP

Эпоха: Sep 14, 2026, 20:15 UTC

1 44725C 19074N   26257.84423611  .00067634  00000+0  57054-3 0  2570
2 44725  53.1508  15.3161 0001850 358.2795  34.0273 15.69099164    16

Отслеживайте STARLINK-1020 в реальном времени с AllMySat

Download on the App Store